Weather History for KDMN - August, 2013

Change the Weather History Date:

Friday, August 9, 2013

  Actual Average Record
Temperature  
Mean Temperature 77 °F 79 °F  
Max Temperature 96 °F 92 °F 104 °F (2003)
Min Temperature 58 °F 65 °F 56 °F (1990)
Cooling Degree Days 14    
Growing Degree Days 28 (Base 50)    
Moisture  
Dew Point 42 °F    
Average Humidity 33    
Maximum Humidity 51    
Minimum Humidity 14    
Precipitation  
Precipitation 0.00 in 0.10 in 0.64 in (2011)
Month to date precipitation 0.02 0.95  
Year to date precipitation 3.79 6.25  
Sea Level Pressure  
Sea Level Pressure 29.83 in    
Wind  
Wind Speed 6 mph (SSW)    
Max Wind Speed 17 mph    
Max Gust Speed 22 mph    
Visibility 10 miles    
Events      
T = Trace of Precipitation, MM = Missing Value Source: NWS Daily Summary

Daily Weather History Graph

Daily Weather History Graph

Search for Another Location

Airport or City:

Trip Planner

Search our weather history database for the weather conditions in past years. The results will help you decide how hot, cold, wet, or windy it might be!

Date:

Astronomy

Aug. 09, 2013 Rise Set
Actual Time 6:31 AM MDT 8:00 PM MDT
Civil Twilight 6:05 AM MDT 8:27 PM MDT
Nautical Twilight 5:33 AM MDT 8:58 PM MDT
Astronomical Twilight 5:00 AM MDT 9:31 PM MDT
Moon 9:06 AM MDT (8/9) 9:27 PM MDT (8/9)
Length of Visible Light 14h 21m
Length of Day
13h 29m
Waxing Crescent, 8% of the Moon is Illuminated
Aug 9
Waxing Crescent
Aug 14
First Quarter
Aug 20
Full
Aug 28
Last Quarter
Sep 5
New

Hourly Weather History & Observations

Time (MDT) Temp. Dew Point Humidity Pressure Visibility Wind Dir Wind Speed Gust Speed Precip Events Conditions
12:53 AM 72.0 °F 39.9 °F 31% 29.82 in 10.0 mi SW 4.6 mph - N/A   Clear
1:53 AM 69.1 °F 41.0 °F 36% 29.82 in 10.0 mi SW 4.6 mph - N/A   Partly Cloudy
2:53 AM 69.1 °F 41.0 °F 36% 29.81 in 10.0 mi SW 5.8 mph - N/A   Partly Cloudy
3:53 AM 66.0 °F 39.9 °F 38% 29.81 in 10.0 mi SW 4.6 mph - N/A   Clear
4:53 AM 64.0 °F 42.1 °F 45% 29.82 in 10.0 mi West 3.5 mph - N/A   Partly Cloudy
5:53 AM 61.0 °F 43.0 °F 52% 29.84 in 10.0 mi Calm Calm - N/A   Partly Cloudy
6:53 AM 61.0 °F 43.0 °F 52% 29.85 in 10.0 mi Calm Calm - N/A   Clear
7:53 AM 66.9 °F 45.0 °F 45% 29.87 in 10.0 mi Calm Calm - N/A   Clear
8:53 AM 79.0 °F 46.0 °F 31% 29.86 in 10.0 mi East 8.1 mph - N/A   Clear
9:53 AM 84.9 °F 48.0 °F 28% 29.86 in 10.0 mi ENE 15.0 mph - N/A   Clear
10:53 AM 89.1 °F 46.9 °F 23% 29.86 in 10.0 mi NE 9.2 mph 17.3 mph N/A   Clear
11:53 AM 91.0 °F 42.1 °F 18% 29.86 in 10.0 mi Variable 6.9 mph - N/A   Clear
12:53 PM 91.9 °F 41.0 °F 17% 29.85 in 10.0 mi Variable 3.5 mph - N/A   Clear
1:53 PM 96.1 °F 42.1 °F 15% 29.83 in 10.0 mi SE 8.1 mph - N/A   Clear
2:53 PM 95.0 °F 39.0 °F 14% 29.82 in 10.0 mi SW 8.1 mph 17.3 mph N/A   Clear
3:53 PM 93.9 °F 39.9 °F 15% 29.81 in 10.0 mi SW 8.1 mph - N/A   Partly Cloudy
4:53 PM 95.0 °F 39.0 °F 14% 29.79 in 10.0 mi SW 9.2 mph 16.1 mph N/A   Clear
5:53 PM 93.9 °F 39.0 °F 15% 29.79 in 10.0 mi Calm Calm - N/A   Clear
6:53 PM 93.0 °F 39.0 °F 15% 29.80 in 10.0 mi South 4.6 mph - N/A   Clear
7:53 PM 90.0 °F 39.9 °F 17% 29.81 in 10.0 mi SSW 4.6 mph - N/A   Clear
8:53 PM 86.0 °F 41.0 °F 20% 29.81 in 10.0 mi SSW 6.9 mph - N/A   Clear
9:53 PM 81.0 °F 42.1 °F 25% 29.84 in 10.0 mi West 3.5 mph - N/A   Clear
10:53 PM 80.1 °F 44.1 °F 28% 29.85 in 10.0 mi WNW 5.8 mph - N/A   Clear
11:53 PM 75.0 °F 43.0 °F 32% 29.86 in 10.0 mi East 3.5 mph - N/A   Clear